SCP
0 0 0 0 0 0 0 0 0 0 0 0 0 0 0 0 0 0 0 0 0 0 0 0 0 0 0 0 0 0 0 0 0 0 0 0 0 0 0 0 0 0 0
0 0 0 0 0 0 0 0 0 0 0 0 0 0 0 0 0 0 0 0 0 0 0 0 0 0 0 0 0 0 0 0 0 0 0 0 0 0 0 0 0 0 0
0 0 0 0 0 0 0 0 0 0 0 0 0 0 0 0 0 0 0 0 0 0 0 0 0 0 0 0 0 0 0 0 0 0 0 0 0 0 0 0 0 0 0
0 0 0 0 0 0 0 0 0 0 0 0 0 0 0 0 0 0 0 0 0 0 0 0 0 0 0 0 0 0 0 0 0 0 0 0 0 0 0 0 0 0 0
0 0 0 0 0 0 0 0 0 0 0 0 0 0 0 0 0 0 0 0 0 0 0 0 0 0 0 0 0 0 0 0 0 0 0 0 0 0 0 0 0 0 0
0 0 0 0 0 0 0 0 0 0 0 0 0 0 0 0 0 0 0 0 0 0 0 0 0 0 0 0 0 0 0 0 0 0 0 0 0 0 0 0 0 0 0
0 0 0 0 0 0 0 0 0 0 0 0 0 -0 -0 0 0 0 0 0 0 0 0 0 0 0 0 0 0 0 0 0 0 0 0 0 0 0 0 0 0 0 0
0 0 0 0 0 0 0 0 0 0 0 0 0 0 0 0 0 0 0 0 0 0 0 0 0 0 0 0 0 0 0 0 0 0 0 0 0 0 0 0 0 0 0
0 0 0 0 0 0 0 0 0 0 0 0 0 0 0 0 0 0 0 0 0 0 0 0 0 0 0 0 0 0 0 0 0 -0 -0 -0 0 0 0 0 0 0 0
-0 -0 0 0 0 0 0 0 -0 -0 -0 0 0 0 0 0 0 0 0 0 0 0 0 0 0 0 0 0 0 0 0 0 0 -0 -0 0 0 0 0 0 0 0 0
-0 -0 0 0 0 0 0 0 -0 -0 -0 0 0 0 0 0 0 0 0 0 0 0 0 0 0 0 0 0 0 0 0 0 0 0 -0 0 0 0 0 0 0 0 0
0 0 0 0 0 0 0 0 -0 -0 -0 0 0 0 0 0 0 0 0 0 0 0 0 0 0 0 0 0 0 0 0 -0 -0 -0 0 0 0 0 0 0 0 0 0
0 0 0 0 0 0 0 0 0 0 0 0 0 0 0 0 0 0 0 0 0 0 0 0 0 0 0 0 0 0 0 0 0 0 0 0 0 0 0 0 0 0 0
0 0 0 0 0 0 0 0 0 0 0 0 0 0 0 0 0 0 0 0 0 0 0 0 0 0 0 0 0 0 0 0 0 0 0 0 0 0 0 0 0 0 0
0 0 0 0 0 0 0 0 0 0 0 0 0 0 0 0 0 0 0 0 0 0 0 0 0 0 0 0 0 0 0 0 0 0 0 0 0 0 0 0 0 0 0
0 0 0 0 0 0 0 0 0 0 0 0 0 0 0 0 0 0 0 0 0 0 0 0 0 0 0 0 0 0 0 0 0 0 0 0 0 0 0 0 0 0 0
0 0 0 0 0 0 0 0 0 0 -0 -0 -0 0 0 0 0 0 0 0 0 0 0 0 0 0 0 0 0 0 0 0 0 0 0 0 0 0 0 0 -0 -0 -0
0 0 0 0 0 0 0 0 0 0 -0 -0 -0 0 0 0 0 0 0 0 0 0 0 0 0 0 0 0 0 0 0 0 0 0 0 0 0 0 0 0 0 -0 -0
0 0 0 0 0 0 0 0 0 0 -0 -0 0 0 0 0 0 0 0 0 0 0 0 0 0 0 0 0 0 0 0 0 0 0 0 0 0 0 0 0 0 0 0
0 0 0 0 0 0 0 0 -0 -0 0 0 0 0 0 0 0 0 0 0 0 0 0 0 0 0 0 0 0 0 0 0 0 0 0 0 0 0 0 0 0 0 0
0 0 0 0 0 0 0 0 -0 -0 -0 -0 0 0 0 0 0 0 0 0 0 0 0 0 0 0 0 0 0 0 -0 0 0 0 0 0 0 0 0 0 0 0 0
0 0 0 0 0 0 0 0 -0 -0 -0 0 0 0 0 0 0 0 0 0 0 0 0 0 0 0 0 0 0 0 0 0 0 0 0 0 0 0 0 0 0 0 0
0 0 0 0 0 0 0 0 0 0 0 0 0 0 0 0 0 0 0 0 0 0 0 0 0 0 0 0 0 0 0 0 0 0 0 0 0 0 0 0 0 0 0
0 0 0 0 0 0 0 0 0 0 0 0 0 0 0 0 0 0 0 0 0 0 0 0 0 0 0 0 0 0 0 0 0 0 0 0 0 0 0 0 0 0 0
0 0 0 0 0 0 0 0 0 0 0 0 0 0 0 0 0 0 0 0 0 0 0 0 0 0 0 0 0 0 0 0 0 0 0 0 0 0 0 0 0 0 0
0 0 0 0 0 0 0 0 0 0 0 0 0 0 0 0 0 0 0 0 0 0 0 0 0 0 0 0 0 0 0 0 0 0 0 0 0 0 0 0 0 0 0
Wind_Speed
13 13 12 11 11 11 10 9 8 8 8 8 8 8 8 8 7 7 6 6 6 5 4 4 3 2 2 2 2 1 1 1 2 3 3 3 4 5 6 5 5 5 6
12 12 12 11 11 10 10 8 8 8 8 8 8 8 9 8 7 7 7 7 6 5 5 4 4 3 3 2 2 2 1 1 2 3 4 3 5 6 6 6 6 6 5
11 11 11 10 10 9 9 8 8 8 8 8 8 8 8 7 7 6 6 5 5 4 4 4 4 3 3 2 2 2 2 2 1 2 4 3 4 4 4 6 6 5 6
10 11 10 9 9 9 9 8 8 8 8 7 7 7 6 6 6 5 5 5 5 5 5 4 4 4 4 4 3 3 2 3 3 3 4 4 4 5 3 4 5 4 5
9 9 8 8 8 8 8 7 7 6 6 5 6 5 4 4 4 4 4 5 5 6 6 5 5 6 5 2 1 2 2 3 3 4 5 4 5 4 4 3 5 5 6
8 8 7 7 7 6 6 6 6 5 5 5 4 4 3 3 4 6 6 4 5 5 5 6 6 4 5 6 8 8 6 4 4 4 5 6 7 6 5 4 4 4 4
6 6 5 5 5 4 5 5 4 3 3 3 3 3 2 1 3 6 9 5 5 5 5 5 5 4 4 4 7 10 10 11 9 5 5 6 6 6 5 5 5 5 5
5 5 4 4 4 4 4 3 2 2 2 1 1 2 1 0 2 6 8 6 5 5 6 5 4 3 4 4 5 7 7 7 8 5 5 7 7 7 6 5 5 5 5
5 4 4 4 4 4 3 2 1 1 1 0 1 2 2 1 2 4 6 4 4 6 6 6 5 4 7 8 6 7 8 8 9 9 10 11 12 11 7 3 3 3 4
3 3 3 3 4 3 2 1 1 1 1 1 1 1 1 1 2 4 6 3 4 5 6 6 8 7 10 10 6 6 8 8 8 9 9 9 7 6 7 3 3 3 3
3 3 3 2 3 2 2 1 2 2 3 3 3 2 1 1 2 5 7 3 3 5 5 5 6 11 13 13 9 5 8 9 7 6 6 5 5 4 4 3 3 3 3
3 3 2 2 1 3 3 3 3 4 4 4 4 4 3 3 4 6 9 8 7 4 5 5 7 13 14 13 8 8 10 7 3 4 4 4 4 4 4 4 4 3 3
2 1 0 1 2 2 3 3 3 3 3 3 3 3 3 3 4 8 9 11 11 5 5 11 13 13 12 8 9 10 7 3 3 3 4 3 3 3 3 4 4 4 4
2 0 0 1 1 2 2 3 3 2 3 2 3 2 3 3 4 5 6 6 9 7 6 9 12 10 8 7 7 6 4 3 3 3 3 3 3 3 3 2 3 3 3
0 0 0 1 2 3 3 2 2 1 2 2 0 1 2 4 6 9 6 5 5 5 6 4 4 5 6 6 6 5 4 4 3 3 2 3 3 3 3 2 2 2 2
1 1 0 1 2 3 3 2 3 1 2 2 2 1 2 4 9 10 10 10 10 9 4 3 4 5 5 6 6 5 4 4 4 3 3 3 3 3 3 3 2 2 2
1 1 1 2 2 3 3 3 1 2 3 3 3 4 5 8 8 9 10 10 8 7 3 4 4 5 6 6 5 4 4 4 4 3 3 3 3 3 2 3 3 2 2
2 2 2 2 2 3 3 2 2 1 1 3 4 5 7 8 8 9 9 7 5 5 3 4 5 5 6 6 5 5 4 5 4 4 3 3 3 3 3 3 3 3 2
2 1 1 1 2 2 3 3 2 1 0 1 2 4 6 7 6 7 6 3 3 4 4 5 5 5 6 5 5 5 4 4 4 4 4 4 4 3 3 3 3 4 3
1 3 3 3 3 3 3 3 2 1 1 1 2 3 4 4 3 4 4 3 3 4 5 5 5 6 5 5 5 5 5 5 5 4 4 4 4 3 3 4 3 3 2
1 2 4 3 3 3 3 3 3 2 1 0 1 2 3 2 3 4 4 4 4 4 5 5 5 5 5 5 5 5 6 5 5 5 5 5 5 4 4 3 3 3 2
2 2 3 3 3 3 3 3 3 2 1 0 1 2 4 2 3 3 4 4 4 3 3 3 4 4 4 4 5 5 5 5 6 6 6 6 5 4 4 4 4 3 3
2 3 3 3 3 4 3 3 3 2 1 0 1 2 3 3 3 4 4 4 4 4 4 4 4 5 5 4 4 4 4 5 5 5 6 6 5 4 4 4 4 4 4
3 4 4 4 3 3 3 3 2 2 1 0 1 2 2 3 3 4 4 4 4 4 4 4 5 7 9 7 5 5 5 6 6 5 5 5 5 4 4 3 4 4 4
3 4 4 4 4 3 3 3 2 2 1 0 1 1 2 3 3 4 4 4 4 4 6 5 5 6 9 10 10 9 10 10 7 5 4 3 4 5 4 4 4 4 4
3 4 4 4 4 4 3 3 3 2 1 0 0 1 2 3 3 4 4 3 4 4 5 5 7 8 10 9 11 12 12 11 10 9 5 4 5 5 5 4 5 5 5
Wind_Direction
73 76 78 77 77 76 76 75 77 73 71 74 73 74 67 60 53 53 50 45 43 32 28 33 20 14 14 1 7 12 26 152 236 278 274 286 300 305 308 300 290 281 283
76 77 77 76 76 77 76 73 75 75 71 73 72 71 67 61 53 50 44 37 31 20 11 11 354 351 347 334 336 328 304 258 214 278 289 297 296 296 294 297 297 297 289
77 78 76 74 74 75 72 69 69 71 69 69 72 73 69 64 54 45 39 31 19 5 354 347 328 329 312 301 299 298 293 300 266 268 285 285 286 291 299 295 292 292 295
77 77 75 73 73 73 72 70 69 72 74 73 76 80 76 67 55 37 25 16 359 345 336 326 313 299 277 276 279 282 284 297 296 289 285 287 283 285 285 291 300 295 294
80 79 76 75 74 73 70 68 67 70 79 83 88 83 76 69 50 36 13 3 347 336 329 322 313 320 331 321 306 289 286 283 289 286 286 290 291 297 291 279 286 293 288
84 83 81 79 77 74 72 68 67 67 70 79 89 92 77 64 42 26 14 351 337 332 326 324 319 338 1 3 348 332 313 291 282 275 282 285 285 282 279 278 281 296 296
83 83 82 83 81 77 77 72 70 69 75 85 100 109 102 67 30 12 7 3 341 333 328 324 329 349 7 348 334 330 321 310 298 276 272 277 278 275 278 283 276 270 268
79 78 80 84 82 77 73 69 62 61 74 95 137 155 155 263 8 11 5 5 349 340 334 329 327 329 331 328 319 316 307 301 295 290 263 268 271 270 256 259 266 276 274
85 86 87 87 86 83 77 61 39 53 28 318 205 175 180 259 311 360 9 351 342 334 330 332 326 312 309 320 316 309 308 304 302 299 294 291 290 290 281 270 286 291 297
103 102 96 98 104 105 103 69 26 41 1 349 350 220 197 235 297 347 4 352 337 329 325 323 321 314 309 312 301 293 297 298 307 315 314 315 310 308 311 266 251 275 287
110 95 88 93 117 118 88 56 45 40 30 18 15 9 30 38 6 357 357 348 323 318 317 316 312 315 315 311 305 275 271 284 295 298 302 309 316 319 316 307 270 248 265
107 96 83 79 100 103 81 58 50 50 43 28 27 19 18 26 21 357 353 347 340 312 305 306 306 313 315 316 313 303 307 310 300 307 312 314 316 314 309 310 310 296 261
108 111 120 76 65 81 96 89 61 52 56 40 33 21 360 358 352 351 346 339 340 332 306 313 316 318 322 323 324 326 328 325 315 315 315 303 292 295 311 323 329 330 325
121 154 171 103 75 72 89 100 93 76 62 43 29 9 343 332 333 337 333 329 332 332 325 320 320 324 335 331 330 334 330 311 303 299 303 303 310 326 330 329 331 335 340
108 317 338 138 131 107 89 90 116 135 155 142 121 322 334 326 313 318 319 316 317 313 318 319 338 344 350 347 340 335 330 336 335 323 321 325 326 330 320 317 324 332 336
74 34 79 121 130 130 120 75 45 113 127 143 173 239 285 292 312 325 331 331 333 335 341 339 340 340 336 333 332 330 327 333 329 328 327 319 315 315 313 314 320 324 321
151 173 158 137 143 155 149 150 166 336 330 310 306 320 325 323 332 338 340 339 345 356 6 344 338 332 328 328 328 326 321 320 323 331 330 319 313 314 315 315 318 321 319
154 166 156 153 153 160 162 165 159 161 318 318 315 315 329 335 342 348 348 354 356 1 349 336 329 326 326 329 329 328 328 333 337 335 330 326 321 315 319 319 315 313 313
151 161 145 137 138 136 138 137 138 145 143 326 332 332 335 336 342 350 358 8 345 336 334 331 326 326 327 327 328 331 336 340 340 339 333 328 325 321 315 312 315 325 330
153 157 138 130 125 122 124 126 130 128 96 353 339 328 333 350 355 344 346 339 335 329 327 329 328 330 332 334 337 343 348 349 348 344 335 330 327 321 314 314 317 324 324
140 133 128 125 136 136 133 137 143 141 141 328 317 320 344 343 333 329 329 329 327 325 326 330 332 337 342 345 348 351 353 345 344 339 333 330 331 328 325 327 326 329 333
157 154 147 148 146 139 136 139 139 140 134 66 330 334 348 349 331 327 327 326 324 321 321 327 335 339 342 346 348 349 346 342 339 337 331 328 330 333 335 340 343 346 351
145 145 145 141 139 136 128 128 134 139 148 219 328 334 337 336 331 329 330 332 340 349 354 0 359 355 352 349 348 346 335 322 312 307 314 321 329 334 336 343 353 358 360
129 140 144 143 136 134 138 143 148 158 171 218 329 330 328 329 332 336 339 345 2 12 15 14 11 3 358 354 345 340 328 312 303 295 302 317 332 338 346 355 359 5 7
127 140 143 145 143 142 143 145 151 165 178 226 310 330 337 344 347 350 357 13 28 32 26 18 9 3 355 353 352 345 335 332 334 329 319 338 355 359 6 10 14 17 20
120 136 139 138 139 143 142 142 148 156 167 189 7 1 357 2 2 5 13 30 39 30 21 12 8 7 1 356 350 345 344 348 352 354 355 7 15 13 13 19 24 27 28